Погода в Раздольном

Россия / Республика Северная Осетия — Алания     43°41′53″N   44°32′07″E
темп.,
°C
ветер,
м/с
пор.,
м/с
влажн.,
%
обл.,
%
осадки,
мм/ч
давл.,
гПа
погр.,
м
13 мая, чт
чт1300:00+11в228019 0.0 101410
03:00+11вюв11840 0.0 101310
06:00+12всв12810 0.0 101456
09:00+19всв33610 0.0 1014583
12:00+23в44490 0.0 1014915
15:00+25в34451 0.0 10131147
18:00+23вюв22610 0.0 101319
21:00+17вюв1169100 0.0 101411
14 мая, пт
пт1400:00+15в338533 0.0 101336
03:00+13всв22875 0.0 101315
06:00+14всв118141 0.0 101451
09:00+21св11635 0.0 1013400
12:00+26в34510 0.0 1012784
15:00+29в23430 0.0 10111148
18:00+27юв11560 0.0 101011
21:00+18в34670 0.0 101148
15 мая, сб
сб1500:00+16всв11695 0.0 101111
03:00+15з12704 0.0 101111
06:00+17зсз23752 0.0 101283
09:00+24сз22635 0.0 1012481
12:00+28с22535 0.0 10121043
15:00+29св21482 0.0 10111387
18:00+28с0159100 0.0 101011
21:00+17в4569100 1.8 101257
16 мая, вс
вс1600:00+16в2272100 0.9 101116
03:00+15с117331 1.0 101011
06:00+16всв117161 0.0 101044
09:00+22св226498 0.0 1009391
12:00+27всв34485 0.0 1007873
15:00+29вюв35404 0.0 10051287
18:00+24в59541 0.0 1005226
21:00+18всв47536 0.0 100599
17 мая, пн
пн1700:00+16в22535 0.0 100413
03:00+15зюз11575 0.0 100411
06:00+16з22677 0.0 100565
09:00+22с1157100 0.0 1005357
12:00+27всв33450 0.0 1004839
15:00+29вюв22370 0.0 10031323
18:00+27сз23564 0.0 100577
21:00+17зсз51087100 1.6 1008284